CW5466 Weather Reports


time (UTC)temp
F
wind
direction
speed
knots
gust
knots
rain 1hr
in
rain 24hr
in
rain mn
in
humidity
%
barometer
mb
20260502123044 40 290 2.6 4.3 0.00 0.00 0.00 70 1021.5
20260502121544 40 331 3.5 4.3 0.00 0.00 0.00 70 1021.3
20260502114600 37 327 1.7 3.5 0.00 0.00 0.00 74 1021.0
20260502113041 36 294 1.7 2.6 0.00 0.00 0.00 75 1020.7
20260502111542 37 252 1.7 3.5 0.00 0.00 0.00 73 1020.7
20260502110044 36 311 0.0 1.7 0.00 0.00 0.00 74 1020.7
20260502104544 37 317 0.9 1.7 0.00 0.00 0.00 72 1020.7
20260502103043 37 0 0.0 0.0 0.00 0.00 0.00 71 1020.5
20260502101558 37 0 0.0 0.0 0.00 0.00 0.00 73 1020.4
20260502100104 35 0 0.0 0.0 0.00 0.00 0.00 78 1020.4
20260502070055 41 325 2.6 4.3 0.00 0.00 0.00 61 1020.1
20260502064611 43 327 2.6 4.3 0.00 0.00 0.00 58 1020.1
20260502063101 43 350 2.6 3.5 0.00 0.00 0.00 58 1020.1
20260502061545 42 26 2.6 3.5 0.00 0.00 0.00 58 1020.2
20260502060047 42 346 3.5 4.3 0.00 0.00 0.00 60 1020.3
20260502054548 42 335 3.5 4.3 0.00 0.00 0.00 59 1020.3
20260502053050 43 336 2.6 3.5 0.00 0.00 0.00 59 1020.2
20260502051542 43 348 2.6 2.6 0.00 0.00 0.00 57 1020.1
20260502050047 43 343 2.6 2.6 0.00 0.00 0.00 58 1020.1
20260502044541 43 348 1.7 2.6 0.00 0.00 0.00 58 1019.9
20260502043112 44 333 1.7 1.7 0.00 0.00 0.00 55 1019.9
20260502041546 46 344 2.6 4.3 0.00 0.00 0.00 50 1019.8
20260502040037 47 14 3.5 4.3 0.00 0.00 0.00 49 1019.7
20260502034541 47 335 3.5 4.3 0.00 0.00 0.00 48 1019.7
20260502033043 48 331 3.5 5.2 0.00 0.00 0.00 48 1019.6
20260502031543 48 340 3.5 6.1 0.00 0.00 0.00 48 1019.5
20260502030048 49 351 3.5 6.1 0.00 0.00 0.00 47 1019.2
20260502024541 49 350 3.5 7.8 0.00 0.00 0.00 46 1019.0
20260502023044 50 331 6.1 9.6 0.00 0.00 0.00 45 1018.8
20260502021544 49 326 4.3 5.2 0.00 0.00 0.00 47 1018.4
20260502020044 50 333 3.5 5.2 0.00 0.00 0.00 46 1018.1
20260502014542 51 333 3.5 6.1 0.00 0.00 0.00 44 1017.8
20260502013049 53 345 5.2 11.3 0.00 0.00 0.00 39 1017.6
20260502011539 55 347 8.7 14.8 0.00 0.00 0.00 36 1017.5
20260502010044 56 323 8.7 13.9 0.00 0.00 0.00 34 1017.3
20260502004546 58 13 11.3 17.4 0.00 0.00 0.00 32 1017.0
20260502003043 59 317 11.3 16.5 0.00 0.00 0.00 32 1016.6
20260502001541 60 321 13.9 20.0 0.00 0.00 0.00 32 1016.5
20260502000039 60 308 13.0 20.0 0.00 0.00 0.00 33 1016.4
20260501234545 61 321 14.8 20.0 0.00 0.00 0.00 33 1016.3
20260501233043 61 316 13.9 18.2 0.00 0.00 0.00 33 1016.3
20260501231540 62 302 13.0 18.2 0.00 0.00 0.00 33 1016.2
20260501230050 62 336 12.2 20.9 0.00 0.00 0.00 33 1016.3
20260501224548 62 323 14.8 19.1 0.00 0.00 0.00 33 1016.3
20260501223045 62 311 13.9 18.2 0.00 0.00 0.00 34 1016.4
20260501221543 62 330 13.9 19.1 0.00 0.00 0.00 33 1016.3
20260501220055 63 338 12.2 18.2 0.00 0.00 0.00 32 1016.4
20260501214544 61 312 15.6 21.7 0.00 0.00 0.00 35 1016.5
20260501213045 61 311 12.2 17.4 0.00 0.00 0.00 34 1016.6
20260501211546 63 291 15.6 21.7 0.00 0.00 0.00 34 1016.9
20260501210044 63 305 13.0 24.3 0.00 0.00 0.00 33 1016.9
20260501204557 62 322 11.3 19.1 0.00 0.00 0.00 32 1017.1
20260501203043 63 317 16.5 21.7 0.00 0.00 0.00 31 1017.1
20260501201543 64 299 10.4 20.9 0.00 0.00 0.00 30 1017.2
20260501200045 64 325 13.0 19.1 0.00 0.00 0.00 31 1017.2
20260501194546 63 313 9.6 17.4 0.00 0.00 0.00 34 1017.5
20260501193041 63 301 13.9 19.1 0.00 0.00 0.00 32 1017.5
20260501191542 63 317 13.9 20.0 0.00 0.00 0.00 31 1017.7
20260501190045 63 327 12.2 16.5 0.00 0.00 0.00 34 1017.7
20260501184550 62 325 13.0 18.2 0.00 0.00 0.00 32 1017.8
20260501183051 62 322 9.6 22.6 0.00 0.00 0.00 36 1017.8
20260501181541 62 306 15.6 19.1 0.00 0.00 0.00 35 1017.9
20260501180049 60 331 10.4 13.9 0.00 0.00 0.00 40 1017.9
20260501174543 61 313 10.4 20.9 0.00 0.00 0.00 43 1018.1
20260501173048 60 298 8.7 15.6 0.00 0.00 0.00 44 1018.0
20260501171552 59 288 9.6 17.4 0.00 0.00 0.00 45 1018.3
20260501170043 58 276 12.2 17.4 0.00 0.00 0.00 45 1018.5
20260501164544 60 308 14.8 20.9 0.00 0.00 0.00 41 1018.3
20260501163044 59 291 11.3 19.1 0.00 0.00 0.00 42 1018.4
20260501161541 59 261 12.2 17.4 0.00 0.00 0.00 45 1018.4
20260501160046 58 294 15.6 20.9 0.00 0.00 0.00 45 1018.4
20260501154549 58 264 7.8 13.0 0.00 0.00 0.00 47 1018.5
20260501153043 58 259 7.8 14.8 0.00 0.00 0.00 46 1018.4
20260501151552 56 290 13.0 16.5 0.00 0.00 0.00 45 1018.5